Weather History for Pine Belt, MS

Change the Weather History Date:

Tuesday, August 13, 2013

  Actual Average Record
Temperature  
Mean Temperature 79 °F -  
Max Temperature 87 °F 88 °F 102 °F (2007)
Min Temperature 71 °F 69 °F 57 °F (2004)
Cooling Degree Days 14    
Growing Degree Days 29 (Base 50)    
Moisture  
Dew Point 71 °F    
Average Humidity 87    
Maximum Humidity 94    
Minimum Humidity 70    
Precipitation  
Precipitation 1.86 in - - ()
Sea Level Pressure  
Sea Level Pressure 30.02 in    
Wind  
Wind Speed 3 mph (SW)    
Max Wind Speed 17 mph    
Max Gust Speed 32 mph    
Visibility 9 miles    
Events Thunderstorm    
Averages and records for this station are not official NWS values.
T = Trace of Precipitation, MM = Missing Value Source: NWS Daily Summary

Daily Weather History Graph

Daily Weather History Graph

Search for Another Location

Airport:

Trip Planner

Search our weather history database for the weather conditions in past years. The results will help you decide how hot, cold, wet, or windy it might be!

Date:

Astronomy

Aug. 13, 2013 Rise Set
Actual Time 6:21 AM CDT 7:42 PM CDT
Civil Twilight 5:55 AM CDT 8:07 PM CDT
Nautical Twilight 5:25 AM CDT 8:38 PM CDT
Astronomical Twilight 4:53 AM CDT 9:10 PM CDT
Moon 12:46 PM CDT (8/13) 11:48 PM CDT (8/13)
Length of Visible Light 14h 12m
Length of Day
13h 20m
Waxing Crescent, 42% of the Moon is Illuminated
Aug 13
Waxing Crescent
Aug 14
First Quarter
Aug 20
Full
Aug 28
Last Quarter
Sep 5
New

Hourly Weather History & Observations

Time (CDT) Temp. Heat Index Dew Point Humidity Pressure Visibility Wind Dir Wind Speed Gust Speed Precip Events Conditions
12:15 AM 71.6 °F - 69.8 °F 94% 30.07 in 9.0 mi Calm Calm - N/A   Clear
12:35 AM 71.6 °F - 69.8 °F 94% 30.07 in 8.0 mi Calm Calm - N/A   Clear
12:55 AM 71.6 °F - 69.8 °F 94% 30.07 in 9.0 mi Calm Calm - N/A   Partly Cloudy
1:15 AM 71.6 °F - 69.8 °F 94% 30.05 in 10.0 mi Calm Calm - N/A   Partly Cloudy
1:35 AM 71.6 °F - 69.8 °F 94% 30.04 in 10.0 mi Calm Calm - N/A   Clear
1:55 AM 71.6 °F - 69.8 °F 94% 30.03 in 10.0 mi Calm Calm - N/A   Clear
2:15 AM 71.6 °F - 69.8 °F 94% 30.03 in 10.0 mi South 3.5 mph - N/A   Clear
2:35 AM 71.6 °F - 69.8 °F 94% 30.01 in 10.0 mi South 3.5 mph - N/A   Clear
2:55 AM 71.6 °F - 69.8 °F 94% 30.01 in 10.0 mi SSW 3.5 mph - N/A   Clear
3:15 AM 71.6 °F - 69.8 °F 94% 30.01 in 10.0 mi Calm Calm - N/A   Clear
3:35 AM 71.6 °F - 68.0 °F 88% 30.01 in 10.0 mi South 3.5 mph - N/A   Clear
3:55 AM 71.6 °F - 69.8 °F 94% 30.01 in 10.0 mi Calm Calm - N/A   Clear
4:15 AM 71.6 °F - 68.0 °F 88% 30.02 in 10.0 mi Calm Calm - N/A   Clear
4:35 AM 71.6 °F - 68.0 °F 88% 30.02 in 10.0 mi Calm Calm - N/A   Clear
4:55 AM 71.6 °F - 68.0 °F 88% 30.03 in 7.0 mi Calm Calm - N/A   Clear
5:15 AM 71.6 °F - 68.0 °F 88% 30.03 in 1.8 mi Calm Calm - N/A   Clear
5:35 AM 71.6 °F - 68.0 °F 88% 30.03 in 9.0 mi Calm Calm - N/A   Partly Cloudy
5:55 AM 71.6 °F - 69.8 °F 94% 30.04 in 9.0 mi Calm Calm - N/A   Scattered Clouds
6:15 AM 71.6 °F - 68.0 °F 88% 30.04 in 5.0 mi SSW 3.5 mph - N/A   Mostly Cloudy
6:35 AM 71.6 °F - 69.8 °F 94% 30.04 in 7.0 mi Calm Calm - N/A   Partly Cloudy
6:55 AM 73.4 °F - 69.8 °F 88% 30.04 in 7.0 mi Calm Calm - N/A   Clear
7:15 AM 73.4 °F - 69.8 °F 88% 30.04 in 7.0 mi WSW 3.5 mph - N/A   Partly Cloudy
7:35 AM 73.4 °F - 71.6 °F 94% 30.04 in 7.0 mi WSW 4.6 mph - N/A   Clear
7:55 AM 75.2 °F - 71.6 °F 89% 30.05 in 8.0 mi Calm Calm - N/A   Scattered Clouds
8:15 AM 75.2 °F - 73.4 °F 94% 30.05 in 7.0 mi WSW 4.6 mph - N/A   Partly Cloudy
8:35 AM 78.8 °F - 73.4 °F 83% 30.05 in 10.0 mi WSW 5.8 mph - N/A   Clear
8:55 AM 78.8 °F - 73.4 °F 83% 30.06 in 10.0 mi WSW 3.5 mph - N/A   Scattered Clouds
9:15 AM 78.8 °F - 75.2 °F 89% 30.06 in 10.0 mi WSW 3.5 mph - N/A   Mostly Cloudy
9:35 AM 80.6 °F 86.2 °F 75.2 °F 84% 30.06 in 10.0 mi WSW 4.6 mph - N/A   Mostly Cloudy
9:55 AM 82.4 °F 89.5 °F 75.2 °F 79% 30.06 in 10.0 mi WSW 6.9 mph - N/A   Mostly Cloudy
10:15 AM 82.4 °F 89.5 °F 75.2 °F 79% 30.06 in 10.0 mi West 4.6 mph - N/A   Mostly Cloudy
10:35 AM 82.4 °F 89.5 °F 75.2 °F 79% 30.06 in 10.0 mi West 5.8 mph - N/A   Overcast
10:55 AM 80.6 °F 85.4 °F 73.4 °F 79% 30.06 in 9.0 mi West 3.5 mph - 0.05 in   Mostly Cloudy
11:15 AM 82.4 °F 90.9 °F 77.0 °F 84% 30.05 in 10.0 mi West 3.5 mph - N/A   Mostly Cloudy
11:35 AM 82.4 °F 89.5 °F 75.2 °F 79% 30.05 in 10.0 mi WSW 8.1 mph - 0.01 in   Mostly Cloudy
11:55 AM 80.6 °F 85.4 °F 73.4 °F 79% 30.04 in 10.0 mi Calm Calm - 0.01 in   Mostly Cloudy
12:15 PM 82.4 °F 89.5 °F 75.2 °F 79% 30.02 in 10.0 mi WSW 3.5 mph - 0.01 in   Mostly Cloudy
12:35 PM 84.2 °F 92.3 °F 75.2 °F 74% 30.01 in 10.0 mi SW 5.8 mph - 0.01 in Thunderstorm Mostly Cloudy
12:55 PM 82.4 °F 89.5 °F 75.2 °F 79% 30.00 in 10.0 mi SW 4.6 mph - 0.01 in Thunderstorm Scattered Clouds
1:15 PM 84.2 °F 92.3 °F 75.2 °F 74% 30.00 in 10.0 mi South 9.2 mph - N/A   Partly Cloudy
1:35 PM 86.0 °F 95.1 °F 75.2 °F 70% 29.99 in 10.0 mi SSW 6.9 mph - N/A   Clear
1:55 PM 87.8 °F 99.7 °F 77.0 °F 70% 29.98 in 10.0 mi SSW 8.1 mph - N/A   Clear
2:15 PM 86.0 °F 96.9 °F 77.0 °F 74% 29.96 in 10.0 mi South 9.2 mph - N/A   Partly Cloudy
2:35 PM 84.2 °F 94.1 °F 77.0 °F 79% 29.96 in 10.0 mi SSW 4.6 mph - N/A Thunderstorm Thunderstorm
2:55 PM 80.6 °F 85.4 °F 73.4 °F 79% 29.97 in 10.0 mi ENE 8.1 mph - N/A Thunderstorm Thunderstorm
3:15 PM 78.8 °F - 73.4 °F 83% 29.97 in 10.0 mi ENE 5.8 mph - N/A Thunderstorm Thunderstorm
3:35 PM 73.4 °F - 71.6 °F 94% 30.01 in 1.2 mi North 17.3 mph 32.2 mph 0.81 in Thunderstorm Thunderstorm
3:55 PM 73.4 °F - 71.6 °F 94% 30.02 in 1.5 mi Calm Calm - 1.30 in Thunderstorm Thunderstorm
4:15 PM 73.4 °F - 71.6 °F 94% 30.01 in 9.0 mi West 4.6 mph - 0.09 in Thunderstorm Thunderstorm
4:35 PM 73.4 °F - 71.6 °F 94% 30.01 in 7.0 mi South 3.5 mph - 0.16 in Thunderstorm Thunderstorm
4:55 PM 73.4 °F - 71.6 °F 94% 30.02 in 7.0 mi SW 3.5 mph - 0.18 in Thunderstorm Mostly Cloudy
5:15 PM 73.4 °F - 71.6 °F 94% 30.03 in 8.0 mi SW 5.8 mph - 0.07 in   Mostly Cloudy
5:35 PM 73.4 °F - 69.8 °F 88% 30.03 in 8.0 mi South 6.9 mph - 0.15 in   Mostly Cloudy
5:55 PM 73.4 °F - 69.8 °F 88% 30.03 in 9.0 mi SSW 4.6 mph - 0.20 in Thunderstorm Overcast
6:15 PM 73.4 °F - 69.8 °F 88% 30.02 in 8.0 mi SSW 4.6 mph - 0.04 in Thunderstorm Thunderstorm
6:35 PM 73.4 °F - 69.8 °F 88% 30.01 in 9.0 mi SSW 4.6 mph - 0.08 in   Overcast
6:55 PM 73.4 °F - 69.8 °F 88% 29.99 in 10.0 mi South 5.8 mph - 0.10 in   Overcast
7:15 PM 73.4 °F - 69.8 °F 88% 29.99 in 10.0 mi SSW 4.6 mph - N/A   Overcast
7:35 PM 73.4 °F - 69.8 °F 88% 29.98 in 10.0 mi Calm Calm - 0.01 in   Overcast
7:55 PM 73.4 °F - 69.8 °F 88% 29.97 in 10.0 mi South 3.5 mph - 0.01 in   Mostly Cloudy
8:15 PM 73.4 °F - 69.8 °F 88% 29.97 in 10.0 mi SSW 3.5 mph - N/A   Scattered Clouds
8:35 PM 73.4 °F - 69.8 °F 88% 29.97 in 10.0 mi SW 3.5 mph - N/A   Mostly Cloudy
8:55 PM 73.4 °F - 69.8 °F 88% 29.98 in 10.0 mi WSW 3.5 mph - N/A   Mostly Cloudy
9:15 PM 73.4 °F - 69.8 °F 88% 30.00 in 10.0 mi West 8.1 mph - N/A   Mostly Cloudy
9:35 PM 73.4 °F - 69.8 °F 88% 30.00 in 10.0 mi West 6.9 mph - N/A   Overcast
9:55 PM 73.4 °F - 69.8 °F 88% 30.00 in 10.0 mi Calm Calm - N/A   Overcast
10:15 PM 73.4 °F - 69.8 °F 88% 29.99 in 10.0 mi Calm Calm - N/A   Mostly Cloudy
10:35 PM 73.4 °F - 69.8 °F 88% 29.98 in 10.0 mi SSW 3.5 mph - N/A   Mostly Cloudy
10:55 PM 73.4 °F - 69.8 °F 88% 29.98 in 10.0 mi South 4.6 mph - N/A   Mostly Cloudy
11:15 PM 73.4 °F - 69.8 °F 88% 29.98 in 10.0 mi South 4.6 mph - N/A   Overcast
11:35 PM 73.4 °F - 69.8 °F 88% 29.98 in 10.0 mi South 4.6 mph - N/A   Mostly Cloudy
11:55 PM 73.4 °F - 69.8 °F 88% 29.98 in 10.0 mi South 4.6 mph - N/A   Overcast